Wind_Speed
11 12 12 11 10 10 10 11 11 11 11 11 10 10 9 9 9 9 11 12 13 12 10 9 8 7 6 5 5 7 9 11 15 17 16 15 15 16 16 16 16 15 16 17 18 18 18 18 18 18 19 20 21 21 21 20 20 18 21 24 21 21 22 20 20 21 21 22 22 21 20 20 19 19 18 17 17 17 17 16 14 14 14 13 13 14 13 12
11 12 12 12 11 10 10 10 10 11 12 12 12 11 10 10 9 9 10 11 13 14 13 11 10 8 7 6 6 6 7 9 12 14 14 13 13 14 15 15 14 14 14 15 17 18 18 18 17 17 18 19 20 20 20 20 20 17 20 22 19 20 20 18 19 20 19 20 20 20 19 19 18 17 16 16 16 16 16 16 14 13 13 13 12 13 13 12
10 11 12 13 13 12 11 10 10 10 10 12 12 12 12 11 11 10 10 10 12 14 14 14 12 10 9 7 7 6 7 7 9 11 12 13 13 14 14 14 12 12 12 13 15 16 17 18 17 16 16 17 19 19 20 20 20 18 19 19 18 19 19 18 18 18 19 19 20 19 19 18 17 16 15 15 15 15 15 15 14 13 13 12 12 13 13 12
11 11 11 12 13 13 13 12 11 10 10 10 11 12 13 12 12 11 10 11 11 13 15 15 14 12 11 9 8 7 7 6 7 9 11 13 15 14 15 13 10 9 10 10 11 13 15 16 16 15 15 15 17 18 19 20 20 19 19 18 17 17 19 19 17 17 18 18 19 20 19 18 18 16 15 14 14 14 15 14 14 13 13 12 11 12 12 12
12 12 11 11 12 13 13 13 12 11 10 10 10 10 11 12 12 12 11 11 11 12 14 15 15 14 12 11 9 8 8 7 6 8 9 11 15 15 14 12 9 7 7 8 9 10 12 14 15 14 13 14 14 16 18 19 19 19 19 17 16 15 17 18 17 17 17 17 18 18 18 18 17 16 15 13 13 13 13 13 13 13 13 12 11 11 12 12
14 13 13 12 12 12 13 14 14 13 13 12 11 10 10 11 11 11 11 10 10 11 13 14 15 15 14 12 11 9 8 7 7 8 9 10 13 14 14 12 10 7 6 7 7 8 9 11 13 13 13 12 12 13 16 17 18 19 19 17 16 15 16 16 16 17 17 17 17 17 17 17 17 17 15 14 12 12 12 11 11 11 12 12 11 11 11 11
16 15 14 14 13 12 12 13 14 14 14 14 13 12 11 10 9 9 9 9 9 10 11 13 14 15 15 14 13 11 9 8 7 8 9 10 10 12 13 13 12 10 7 7 7 7 7 9 12 12 12 12 11 11 12 14 17 18 19 17 16 16 15 16 16 17 18 18 18 18 18 17 18 17 16 15 13 12 11 10 9 8 9 10 10 10 10 10
18 17 16 15 14 14 13 13 14 14 15 15 14 13 12 11 10 9 9 9 9 9 10 11 13 15 16 15 14 12 11 10 8 8 9 9 10 10 11 12 12 12 10 8 7 7 6 6 10 10 11 11 10 9 8 10 13 16 17 16 15 15 15 16 16 17 18 18 18 17 17 17 18 17 17 15 14 12 11 10 8 6 6 7 8 8 9 9
21 19 18 17 16 15 15 14 14 14 14 15 15 14 13 13 12 11 10 9 9 9 9 10 12 13 15 15 15 14 12 11 9 8 9 9 9 9 9 10 10 12 13 9 8 9 7 5 7 9 10 10 9 8 7 7 11 13 14 14 14 14 14 14 15 16 16 17 17 16 16 16 17 17 17 16 14 13 12 11 9 7 6 6 7 8 8 9
22 22 20 19 17 16 16 16 15 15 14 14 14 14 14 14 14 13 12 11 10 10 9 10 11 12 14 15 15 15 13 10 10 9 9 9 9 9 8 8 8 10 13 12 9 10 10 7 6 7 8 8 8 7 6 7 9 10 11 12 12 12 11 12 12 13 14 14 15 15 15 15 16 16 17 17 15 13 12 12 11 10 8 7 8 8 9 10
23 23 22 21 19 18 17 17 16 16 15 14 14 14 15 15 15 15 15 14 12 12 11 10 10 11 13 14 15 16 13 12 11 10 10 9 8 8 8 8 8 8 10 12 11 10 11 9 6 5 7 7 7 7 6 6 7 7 8 9 9 9 9 9 9 10 11 12 13 13 13 14 15 15 16 16 15 14 13 12 12 11 10 9 8 9 9 10
23 23 23 23 21 20 19 18 17 17 16 15 15 14 14 15 15 16 15 15 14 13 12 12 11 12 12 13 15 15 14 14 13 11 11 10 9 9 9 8 8 7 7 10 11 11 10 10 8 6 5 6 7 5 4 4 4 3 4 5 6 6 6 6 7 7 8 9 9 9 10 12 13 14 14 14 14 13 13 13 12 10 10 10 9 10 10 11
23 23 24 23 23 22 21 20 19 18 17 17 16 16 15 15 15 15 15 15 15 15 14 13 13 13 13 14 15 13 13 14 13 12 12 10 11 11 10 9 8 8 7 7 8 11 11 10 10 9 7 7 7 6 5 4 1 1 1 2 1 2 2 2 3 4 6 6 6 6 7 9 11 12 12 13 13 13 13 13 12 11 9 8 9 10 11 12
23 23 24 24 24 23 23 22 21 20 19 18 18 17 17 16 15 15 15 15 15 16 15 15 14 14 14 15 15 13 13 14 13 13 13 12 13 13 12 10 10 9 8 7 6 7 10 11 11 12 10 8 7 7 6 3 2 1 2 4 3 3 4 4 4 3 3 3 3 3 5 6 9 11 11 12 12 13 13 13 12 11 9 7 8 9 10 12
22 23 23 24 24 24 24 23 22 22 20 19 19 18 18 17 17 16 16 15 15 15 15 16 16 16 16 16 16 15 14 15 15 15 14 15 15 14 13 12 11 11 10 9 8 6 7 10 12 12 11 10 8 7 6 4 3 3 3 3 4 6 7 7 7 6 4 2 1 2 4 5 8 9 9 10 11 12 13 13 12 11 9 7 7 8 9 10
22 22 23 23 24 24 24 24 24 23 22 21 20 20 19 19 18 18 17 16 16 15 15 15 15 16 17 17 16 16 16 16 17 16 16 17 17 16 15 13 12 12 12 11 10 8 6 6 10 12 12 11 9 8 8 6 5 5 4 3 5 7 8 8 6 6 6 4 2 1 2 4 6 8 8 9 11 11 12 13 14 12 10 9 8 7 7 9
24 23 23 23 23 24 25 25 25 25 24 23 22 22 21 20 19 19 19 18 17 16 15 15 15 15 17 16 15 16 16 17 18 17 18 18 18 17 17 16 15 14 13 13 11 10 9 6 7 10 13 12 11 10 8 7 7 7 6 5 6 7 8 10 8 6 6 4 3 2 3 4 4 4 5 7 9 11 11 12 14 14 12 10 9 7 7 8
25 25 24 23 23 23 24 25 25 26 26 25 24 24 23 22 21 20 20 19 18 17 17 16 16 16 17 16 15 16 16 17 17 17 18 19 19 18 18 18 17 16 16 15 13 12 11 10 7 8 11 12 11 11 10 8 9 10 9 8 7 8 9 11 10 8 8 6 4 3 3 5 5 4 3 6 8 10 11 11 12 14 13 12 10 8 8 8
27 27 26 25 24 24 23 24 25 26 26 27 26 26 25 24 23 22 21 20 19 19 19 18 18 18 18 17 16 16 16 16 16 16 18 19 20 20 19 19 18 17 17 15 14 14 12 12 11 8 8 11 13 14 13 10 10 11 11 10 10 9 8 11 12 11 10 9 7 6 4 4 7 7 4 5 8 9 9 10 11 12 13 12 11 10 9 9
28 28 28 27 26 25 25 24 24 25 26 26 27 27 27 26 26 24 23 22 21 21 20 20 19 20 19 18 17 17 16 16 16 16 17 18 20 21 20 19 18 18 16 15 16 14 13 14 13 9 7 11 15 16 14 10 9 11 12 12 13 11 10 13 14 12 11 11 10 9 6 5 8 10 8 6 8 8 8 9 9 11 13 12 11 10 11 11
28 28 29 28 27 27 26 25 25 25 25 25 26 27 27 28 28 27 25 25 24 23 22 21 21 21 21 20 19 18 17 17 17 16 17 18 19 20 20 19 18 17 15 15 15 14 16 16 12 11 11 13 15 15 13 11 11 12 13 15 16 14 13 15 15 14 13 12 11 11 8 7 9 12 11 7 7 8 7 8 8 9 12 13 12 12 12 12
28 28 28 28 28 28 28 27 26 26 26 26 26 26 27 27 28 28 27 26 26 25 24 23 23 23 22 21 20 20 18 19 19 18 18 18 19 20 19 19 18 17 15 15 16 16 17 16 12 14 15 13 13 14 13 13 12 11 13 16 17 16 15 15 17 16 15 14 13 12 10 8 10 12 11 8 7 7 5 8 8 8 10 12 12 13 12 12
29 29 28 28 28 28 28 28 27 27 27 27 27 27 26 27 27 28 28 28 28 27 26 25 25 24 24 22 21 20 19 20 20 19 19 19 20 20 19 18 18 18 16 15 17 18 17 16 15 17 16 15 15 13 13 13 12 12 14 16 17 18 15 15 19 17 16 16 14 15 12 8 10 13 10 7 6 5 5 8 10 10 11 12 12 13 12 12
30 30 30 29 28 27 28 28 28 28 28 28 28 27 27 27 27 27 27 27 28 28 28 28 27 26 26 24 23 21 21 22 21 20 20 20 20 21 20 20 20 19 17 17 18 18 17 16 16 16 17 17 15 13 12 12 12 12 14 15 17 18 17 18 21 18 17 19 16 16 14 10 12 11 6 6 7 5 3 7 12 13 13 14 13 13 12 12
30 30 30 30 29 28 28 28 28 27 28 28 28 28 28 28 28 27 26 26 26 27 28 28 28 28 28 27 25 24 22 23 23 22 22 22 21 22 21 21 21 20 19 19 19 18 17 15 14 17 19 17 15 14 12 12 12 12 13 14 15 18 20 22 23 21 19 20 16 15 17 14 13 10 4 7 9 6 4 7 12 14 14 15 15 14 13 13
29 30 30 30 29 29 28 29 28 27 28 27 27 28 27 27 27 27 26 26 26 27 28 28 29 29 28 28 27 26 25 25 25 24 23 23 23 22 21 21 21 21 21 21 21 20 18 16 16 18 19 18 17 16 13 13 13 12 13 15 14 17 21 24 25 23 20 20 16 14 18 17 14 12 6 6 10 10 9 9 10 12 14 15 15 15 14 14
26 28 29 30 29 29 29 29 28 28 28 27 28 28 27 27 26 26 25 25 27 27 27 28 28 28 28 28 28 28 29 28 27 26 25 25 24 23 23 22 20 21 22 22 23 20 18 19 20 20 20 20 18 16 16 15 14 14 16 15 15 18 21 24 25 24 22 23 20 17 19 16 16 17 9 5 10 12 11 11 10 11 13 14 14 15 15 15
25 26 26 28 29 28 28 28 28 28 28 28 28 28 28 26 26 25 24 25 28 28 26 27 28 28 27 28 28 30 30 28 29 29 27 27 26 25 24 23 22 23 24 23 23 21 20 22 23 20 19 18 16 17 18 15 14 17 17 15 16 20 22 23 24 24 25 25 22 21 21 16 15 19 14 8 10 12 12 12 11 11 11 12 13 14 15 16
27 26 25 26 26 27 27 27 27 28 28 29 29 29 28 27 26 25 25 27 29 26 25 26 27 27 27 28 28 29 29 29 30 30 29 29 29 27 26 25 25 26 25 24 23 21 22 23 22 19 18 17 16 19 19 15 16 19 18 16 18 22 23 23 24 25 28 27 22 21 24 20 15 18 19 14 11 13 15 13 10 10 10 11 12 13 15 16
28 28 27 26 25 25 25 26 27 27 28 28 29 29 28 28 27 26 28 29 26 23 23 24 25 26 27 28 29 29 28 28 28 29 29 30 30 30 29 28 28 28 27 26 24 23 23 23 23 21 20 19 19 21 20 18 19 19 19 18 20 23 24 24 24 25 28 28 23 22 25 23 19 18 20 18 16 17 18 15 12 12 13 13 13 14 15 16
27 28 29 28 27 26 24 24 24 26 28 28 28 29 29 29 28 29 31 27 22 22 24 24 24 25 26 26 28 28 27 27 27 27 28 28 29 31 31 30 30 30 30 28 26 26 26 26 26 24 23 23 23 23 22 21 21 20 19 19 21 24 24 24 25 26 26 26 25 23 22 22 21 20 20 22 23 21 17 16 15 16 16 14 15 15 15 16
26 27 28 29 29 28 26 24 23 24 26 27 29 29 28 30 30 31 28 21 21 26 25 23 24 24 24 25 26 26 26 25 25 25 26 26 27 28 29 30 31 31 31 30 29 30 31 30 29 27 27 27 26 26 25 23 23 22 20 19 21 24 25 24 26 27 25 25 26 23 20 22 22 22 22 22 24 22 17 15 15 17 19 17 16 15 15 16
25 26 27 27 28 28 27 26 25 25 25 26 29 28 29 31 30 27 23 20 25 27 23 23 24 23 23 23 24 25 24 24 24 24 24 24 24 25 26 28 29 29 30 30 30 30 31 31 30 30 30 29 28 27 25 25 25 23 21 21 21 22 25 25 24 24 22 23 27 24 21 24 24 23 23 19 19 19 17 16 16 19 20 19 17 15 15 14
26 26 26 26 27 27 27 28 28 27 26 26 27 28 31 31 26 22 23 24 27 26 22 23 24 23 23 23 23 23 22 23 23 22 23 23 23 23 24 25 25 26 27 28 28 28 29 29 29 30 28 28 28 26 25 27 27 24 22 23 22 22 24 22 20 19 17 18 25 25 21 23 24 22 20 17 16 15 15 15 16 18 20 19 16 15 14 14
28 27 27 26 26 26 27 29 29 28 28 27 27 29 29 26 22 22 25 27 27 26 24 24 24 24 24 24 24 22 21 21 21 21 21 21 21 21 21 22 23 24 24 25 26 26 26 26 27 28 26 26 26 25 27 27 27 26 24 23 22 21 23 23 20 19 18 17 20 23 21 19 20 20 17 14 12 10 9 11 12 14 16 16 15 15 15 15
29 28 28 28 27 27 27 28 28 29 30 29 30 30 24 21 23 24 25 26 26 26 25 24 24 24 24 24 24 22 21 20 19 18 18 18 18 18 19 20 21 21 21 22 23 23 23 24 26 26 25 24 24 25 26 25 25 25 23 22 21 20 22 23 20 20 21 18 19 21 19 15 15 17 15 11 8 7 7 7 8 10 13 15 15 15 16 17
30 29 29 29 28 28 27 28 28 29 30 31 32 29 23 21 24 25 24 25 26 26 26 25 26 26 25 25 24 23 21 20 19 18 16 16 15 16 17 18 18 18 18 19 21 22 22 23 24 24 23 23 23 24 24 23 23 21 18 18 19 19 20 20 18 17 17 16 16 18 16 13 14 15 13 10 9 8 7 6 7 9 11 13 13 13 14 16
32 31 30 30 30 29 28 28 28 29 30 31 31 28 24 24 24 24 25 26 26 27 28 28 28 27 25 25 25 23 21 20 19 17 15 14 13 13 15 16 16 16 17 19 20 20 19 20 21 21 21 21 21 22 21 20 20 18 16 16 16 17 18 17 17 15 13 13 13 15 15 14 14 14 11 10 8 8 9 9 9 10 11 13 14 15 16 17
34 32 32 31 31 31 29 29 29 30 30 31 29 26 25 25 25 25 26 26 26 28 30 31 30 28 26 26 25 23 22 21 19 16 14 13 12 13 14 15 16 17 18 18 17 17 17 18 18 19 19 19 18 19 19 18 18 17 17 16 16 17 15 14 15 13 11 12 11 14 14 12 13 14 11 9 9 10 12 12 12 14 15 17 17 19 19 20
35 34 33 32 33 33 32 31 30 31 30 29 27 26 25 26 26 26 26 27 28 29 32 32 31 29 28 26 24 24 22 20 18 15 14 13 12 13 15 15 16 17 17 16 16 16 17 17 17 17 16 14 15 17 18 18 18 17 16 16 15 15 14 13 13 11 11 11 11 14 13 10 14 14 10 10 12 13 14 15 15 16 17 18 19 20 21 21
35 35 34 32 34 35 35 35 33 32 30 28 27 27 26 27 29 28 27 28 29 30 31 32 32 31 30 27 26 24 22 19 17 15 14 14 14 15 16 15 15 16 16 16 16 16 15 16 17 16 12 9 14 17 17 16 16 15 16 14 13 13 13 12 11 11 12 11 12 14 12 12 15 11 8 11 13 14 16 16 16 17 17 19 20 21 22 21
37 36 34 32 33 34 35 37 35 33 31 29 27 27 27 29 30 30 29 29 30 31 31 33 34 33 31 29 27 24 22 20 18 15 15 16 17 17 16 15 15 15 15 16 16 15 14 16 17 17 16 13 15 15 13 14 14 13 14 14 14 15 14 11 10 11 13 12 13 15 14 15 14 10 10 13 14 15 16 16 16 16 15 16 18 20 20 21
38 37 35 34 34 34 35 37 36 34 32 28 27 29 30 31 32 32 31 30 31 31 32 33 34 34 33 31 28 25 24 21 19 17 17 18 19 19 18 16 16 15 15 16 16 15 16 17 17 17 17 15 15 13 12 13 12 11 13 14 14 14 15 13 12 12 14 13 14 15 16 16 15 13 14 15 15 16 17 17 17 16 15 16 17 18 20 20
39 39 37 37 36 35 36 37 36 35 31 28 29 31 32 32 33 33 32 31 32 33 33 34 35 35 34 32 29 27 25 23 21 19 19 19 20 20 19 18 17 16 15 15 15 16 16 18 18 17 15 12 12 12 11 12 12 13 13 13 14 15 15 15 14 14 15 15 14 15 16 17 15 14 14 16 17 17 16 17 18 18 20 22 22 22 23 23
42 41 40 39 38 38 38 38 36 36 33 29 29 31 32 34 34 34 34 33 33 33 35 35 36 36 35 32 30 28 26 25 22 20 20 21 22 21 21 19 17 16 16 16 16 17 18 19 18 16 12 8 9 11 12 12 14 15 16 15 14 15 16 16 17 17 17 17 17 16 16 18 16 14 16 19 21 21 19 19 20 22 25 26 27 28 28 28
44 45 43 42 41 41 40 40 39 38 36 33 30 30 32 34 34 34 35 34 34 35 36 36 36 36 36 34 32 30 28 26 23 22 22 22 23 22 21 20 18 17 17 17 17 17 18 20 19 18 15 13 15 18 16 13 12 15 19 19 16 16 17 19 19 19 19 19 18 17 17 18 19 19 20 23 24 25 25 25 26 27 29 30 31 32 32 32
46 47 46 45 44 44 43 42 42 41 39 36 33 30 30 32 34 35 36 36 36 36 36 37 37 37 37 35 33 32 30 27 25 23 23 23 24 23 22 21 19 18 18 17 16 16 17 19 19 19 19 18 19 19 16 15 15 17 19 19 18 18 18 20 20 20 22 21 20 21 21 20 22 24 24 25 26 27 28 29 30 31 32 34 35 35 34 31
47 48 47 47 47 46 46 45 44 43 41 39 37 34 30 31 34 36 36 37 37 37 37 38 38 37 37 36 35 33 31 28 26 25 24 24 24 23 22 20 19 19 19 17 15 15 16 18 19 19 19 19 18 17 17 18 19 18 18 17 17 18 19 21 22 22 23 23 23 26 27 25 26 28 27 27 28 29 29 31 32 34 35 36 36 35 32 28
48 48 48 48 48 48 47 46 45 45 44 42 41 37 33 32 34 35 37 38 38 38 38 38 38 38 39 38 36 34 32 30 29 27 26 24 24 23 22 21 20 20 19 17 16 15 16 19 18 17 18 19 19 18 19 19 19 19 19 18 18 20 21 23 24 25 26 26 27 29 29 29 29 29 29 30 30 31 33 34 35 35 36 35 34 31 28 26
48 47 47 48 48 47 47 46 45 46 45 44 43 40 37 35 34 35 38 39 39 40 39 38 38 39 40 39 37 35 34 32 30 29 27 25 24 24 23 23 22 21 19 19 18 17 17 17 17 17 18 19 18 18 19 19 20 21 22 20 20 22 24 24 25 27 28 28 29 29 28 28 27 27 28 30 31 32 33 33 33 33 31 30 28 27 25 24
49 49 48 48 48 47 47 46 46 46 46 45 44 42 39 36 36 37 39 40 40 41 39 37 39 41 41 40 38 36 35 34 31 30 28 26 24 24 25 25 24 23 21 21 20 20 19 17 17 18 18 17 16 16 17 17 17 19 20 19 20 22 23 23 23 25 25 24 24 25 26 25 24 24 26 28 30 31 31 31 30 28 27 25 24 23 23 22
53 52 51 50 49 49 48 47 46 46 46 46 45 43 41 39 38 39 40 40 41 41 39 40 42 43 43 42 40 38 36 34 33 31 29 27 25 25 26 25 25 24 24 23 22 22 20 18 17 16 16 16 14 13 15 15 13 12 11 10 12 15 17 18 19 20 21 21 22 22 23 24 24 25 27 27 28 29 28 27 26 24 23 22 21 20 20 20
Wind_Direction
199 198 198 197 194 192 194 199 202 202 201 198 195 193 192 189 187 183 178 176 181 188 189 183 174 163 154 147 135 125 120 112 112 113 105 103 106 102 98 96 94 93 92 90 87 83 81 78 78 81 83 85 84 83 82 80 78 81 84 83 83 83 82 82 82 83 85 86 85 83 82 81 80 82 83 84 82 80 77 74 73 76 78 79 80 81 74 68
198 200 200 200 199 197 193 193 196 200 202 202 202 201 201 201 200 196 191 184 182 188 195 195 186 178 173 166 156 137 129 124 120 118 110 109 114 110 103 97 95 95 93 92 89 85 82 79 78 80 82 84 85 84 83 82 80 78 82 86 87 84 83 82 83 84 84 85 83 82 82 82 81 80 81 82 82 82 81 77 72 71 75 75 76 77 74 67
201 200 201 202 202 201 200 196 192 192 196 201 203 204 205 207 208 206 201 195 187 186 194 201 197 189 185 182 173 154 142 137 130 124 113 114 123 120 107 96 91 93 91 88 86 84 81 77 76 78 82 85 87 87 86 84 83 80 82 87 87 87 87 83 83 85 84 83 82 80 79 80 80 79 78 79 81 83 83 81 77 72 69 68 70 71 70 64
210 205 202 203 203 203 204 202 199 194 191 193 198 202 204 207 210 210 206 202 195 189 190 199 204 197 192 192 185 172 156 147 143 133 119 117 128 127 112 98 88 90 89 82 80 81 81 79 75 76 80 85 89 89 87 85 84 82 81 83 85 88 90 88 85 84 84 84 82 81 79 77 76 75 76 77 79 81 82 81 78 74 68 63 63 65 65 58
217 213 208 205 204 204 205 205 205 202 198 193 193 197 199 203 207 210 208 204 200 194 190 195 203 203 198 196 194 186 172 164 162 149 134 128 134 135 124 111 98 97 95 86 79 78 82 83 79 77 77 81 86 89 89 87 85 83 80 80 82 81 85 89 88 85 82 81 81 80 78 75 72 71 72 74 76 78 79 78 75 71 67 62 58 58 58 51
221 219 215 211 207 205 205 206 207 207 206 202 198 196 197 197 199 203 206 204 201 196 193 193 200 204 203 200 199 198 185 175 172 161 152 144 145 144 139 132 119 115 116 104 92 83 84 87 84 80 78 76 79 84 90 91 89 86 82 79 77 74 75 81 84 85 82 80 79 78 76 73 70 69 69 69 71 74 76 75 72 68 66 62 57 53 49 42
224 222 219 216 212 209 206 205 207 208 209 208 205 202 200 197 194 196 198 199 197 194 192 193 198 202 204 204 204 204 195 187 182 171 166 158 158 156 150 147 136 130 132 124 113 96 88 92 91 87 82 78 76 78 84 92 93 91 88 84 78 74 73 75 79 81 80 79 77 74 71 69 67 66 65 65 67 70 71 69 68 65 65 63 57 49 42 35
227 225 222 220 217 214 210 207 207 208 210 210 210 207 205 202 199 197 196 193 189 188 188 188 195 199 203 205 206 207 203 197 193 185 179 168 167 168 160 156 148 142 139 134 126 109 95 101 102 95 88 83 77 74 75 84 91 94 94 91 85 81 78 77 76 75 73 72 71 70 67 65 63 61 59 61 64 66 65 63 61 59 58 57 50 41 33 23
227 226 224 222 219 217 215 213 209 208 210 211 212 211 209 207 206 205 202 196 189 186 183 181 188 194 200 204 206 211 207 201 200 198 193 180 176 178 170 164 157 152 148 144 135 122 114 117 114 105 97 92 84 76 70 76 86 94 96 95 93 89 85 82 77 71 68 65 64 63 63 60 59 57 56 57 63 66 61 57 53 50 46 40 37 30 21 11
226 226 226 224 221 220 218 217 215 212 210 211 212 213 213 211 210 210 208 204 198 194 187 181 182 185 194 199 205 212 209 207 209 208 206 198 191 188 181 175 169 165 158 152 147 136 131 136 134 121 111 101 93 85 76 75 81 90 95 97 97 94 91 87 81 74 68 64 61 59 58 57 55 54 54 55 61 65 58 51 47 44 39 32 26 19 12 5
224 224 225 225 223 221 220 220 218 216 213 211 211 212 213 213 214 214 212 210 207 205 199 191 184 183 190 195 203 210 207 213 219 217 217 214 210 204 198 191 186 182 169 160 156 150 146 150 161 150 129 118 106 96 85 80 81 89 96 99 100 99 96 92 87 81 76 71 64 58 54 54 51 49 49 52 56 60 56 49 42 38 33 28 18 8 2 357
224 224 224 224 224 223 222 222 221 220 217 215 213 212 213 214 216 217 216 215 212 212 210 205 196 189 191 193 202 205 203 212 219 220 223 222 223 223 217 210 204 201 190 174 163 162 162 159 170 176 156 141 126 112 106 95 81 87 96 97 103 104 102 99 94 90 90 85 73 61 54 52 49 44 41 42 45 48 49 47 41 35 29 22 13 1 353 349
225 224 223 224 224 224 224 223 223 222 220 218 216 215 214 213 216 218 219 219 217 216 216 216 211 203 199 197 204 206 203 213 219 220 227 229 230 234 233 230 226 220 214 203 178 166 169 172 177 184 187 171 146 139 142 121 86 81 46 25 63 73 63 71 83 87 92 95 87 67 52 51 49 43 37 34 34 33 36 39 36 33 29 18 8 357 348 344
226 225 224 224 224 224 225 224 224 224 222 221 220 217 216 215 216 217 218 219 219 219 218 219 220 218 213 207 209 211 207 213 218 218 226 231 232 238 242 243 243 241 235 229 219 181 169 176 185 188 193 185 165 161 160 142 166 192 336 334 334 346 344 341 345 1 49 82 92 62 44 51 54 45 33 27 26 25 25 26 26 25 23 14 1 354 346 342
228 227 225 225 224 224 225 225 225 226 224 223 223 221 219 217 217 217 219 219 220 220 219 220 221 224 225 219 217 218 214 214 216 217 222 229 234 238 244 248 250 253 253 246 245 229 183 172 185 195 193 191 189 174 163 162 187 218 293 316 321 332 334 330 328 328 339 357 346 41 41 47 59 51 34 24 19 20 21 19 17 13 10 2 350 349 346 342
230 229 227 226 225 225 225 225 225 226 226 224 225 225 222 220 219 218 219 220 221 221 220 221 221 223 229 228 224 224 222 218 218 219 221 227 233 238 245 250 253 256 258 257 254 255 240 187 183 195 197 197 197 180 170 178 205 252 275 280 304 319 321 312 311 316 320 321 302 346 3 3 47 51 36 25 17 15 19 19 16 8 359 349 341 341 342 344
233 232 230 228 227 226 226 226 226 225 226 225 225 226 226 224 222 221 220 220 220 221 222 223 222 224 229 230 228 228 227 223 222 223 225 229 233 237 242 245 249 252 254 257 256 258 259 241 195 191 203 206 197 189 183 184 207 246 258 259 287 300 299 301 309 309 305 304 292 288 312 324 3 32 23 17 13 11 14 21 19 11 360 345 335 331 334 345
235 235 233 231 230 228 226 227 228 227 226 226 225 226 227 227 226 224 223 221 221 221 223 224 224 226 229 228 227 228 229 227 225 223 226 231 234 236 239 240 242 244 247 250 253 255 255 257 241 201 200 208 205 198 194 205 219 226 233 238 258 277 282 293 302 296 290 287 271 273 301 316 316 318 346 356 360 3 8 22 24 17 9 351 336 326 328 343
236 236 235 234 233 232 230 228 229 229 228 227 227 227 227 228 228 227 226 225 223 222 223 223 223 226 229 229 227 227 228 230 227 223 224 228 233 236 238 239 239 240 242 244 246 247 247 252 252 233 197 200 208 206 205 222 230 223 232 239 242 254 262 273 282 281 281 276 267 268 272 299 303 301 313 329 340 351 358 14 26 22 18 4 346 331 327 336
237 237 237 236 235 235 234 231 231 231 231 229 229 228 228 229 229 228 227 227 226 224 224 224 223 226 228 229 229 228 227 230 229 225 224 226 231 235 238 239 239 239 240 242 244 243 244 246 246 247 225 205 210 218 226 238 240 230 236 242 243 250 251 258 269 272 272 271 273 278 272 279 292 303 315 314 325 339 345 1 21 24 22 15 359 344 334 332
238 238 238 237 236 236 236 235 234 234 233 232 231 231 229 230 230 229 228 228 228 227 226 226 225 227 228 228 230 229 228 231 230 226 224 225 230 234 239 241 242 242 241 241 244 239 239 242 243 249 241 223 218 229 241 246 245 241 240 239 241 244 243 251 262 266 266 263 267 279 285 284 292 308 316 309 316 329 336 350 8 18 17 16 8 358 346 334
239 239 239 238 237 237 237 237 237 237 237 235 234 234 232 232 233 233 231 230 230 229 229 229 228 229 228 227 230 230 229 232 232 228 226 226 230 233 236 240 243 245 242 240 240 235 236 240 241 243 240 235 231 231 237 241 243 244 244 243 240 239 240 248 257 257 260 261 258 269 279 286 294 299 299 297 308 316 330 348 351 352 357 2 5 3 356 342
240 239 239 239 237 237 237 238 237 238 239 238 237 236 236 235 235 235 234 233 233 232 231 231 230 232 232 228 228 230 230 232 233 231 230 228 229 233 234 237 241 243 240 239 239 235 234 235 235 238 240 241 241 238 238 242 245 245 246 245 239 240 238 244 257 258 257 262 260 267 276 280 281 274 268 279 294 302 331 351 346 338 335 338 347 355 356 349
240 240 240 240 238 237 237 238 237 238 239 240 240 239 239 238 238 238 236 236 237 235 233 232 232 233 235 232 228 228 229 233 234 232 233 230 230 232 233 235 238 241 241 242 243 239 236 235 234 238 243 246 249 251 250 248 250 248 249 247 241 242 238 239 258 264 260 266 270 278 289 293 287 281 271 283 288 288 316 344 342 335 329 324 327 339 347 349
240 240 240 240 239 238 238 238 238 238 238 240 241 241 240 240 240 240 240 239 238 238 237 235 233 233 235 236 232 228 228 232 234 233 234 234 232 232 233 235 238 240 243 244 244 239 236 238 239 244 250 254 256 256 256 255 253 251 253 252 242 240 240 242 255 262 261 272 280 281 288 294 298 302 294 280 281 273 276 320 329 326 326 320 316 324 333 339
240 241 241 240 239 238 238 238 238 238 238 239 241 241 241 241 242 242 242 242 239 239 240 238 236 235 235 236 236 233 230 230 232 233 234 236 235 235 235 236 238 240 242 242 243 240 240 245 245 246 251 254 256 257 256 254 253 253 253 251 243 239 241 242 252 258 257 270 284 279 279 290 301 299 285 274 279 272 272 295 307 309 316 313 307 313 321 327
241 241 241 241 240 238 237 238 237 238 238 239 240 241 241 241 242 242 243 244 241 238 239 240 240 238 236 237 237 236 234 232 232 233 233 236 238 237 236 236 237 240 241 241 243 243 243 246 244 243 248 251 256 257 253 249 249 253 253 247 240 240 242 243 250 255 256 267 279 277 274 284 297 296 294 281 280 279 277 280 285 292 303 306 304 308 315 320
240 241 241 242 241 239 238 237 236 237 238 238 239 240 241 240 241 241 241 244 244 239 239 242 243 240 238 238 237 237 237 235 234 234 233 236 238 238 238 238 237 239 240 240 243 243 241 243 245 246 249 253 257 256 252 249 247 252 254 246 238 243 246 246 248 251 256 267 272 273 276 281 290 295 297 286 272 271 262 253 262 279 292 303 305 308 315 316
240 240 240 241 241 240 238 237 236 235 236 237 238 238 239 239 239 240 240 241 242 240 240 242 243 242 239 239 238 238 238 236 236 236 234 235 238 239 239 239 239 240 242 242 244 245 244 246 250 250 249 250 250 250 252 250 248 251 256 252 247 248 249 249 249 248 256 267 270 271 279 285 289 291 292 292 285 281 273 258 266 285 286 294 300 302 312 313
241 240 241 240 241 240 238 237 236 234 235 235 236 237 237 238 237 239 240 239 240 240 240 240 241 241 240 239 239 239 239 237 237 238 237 236 238 239 240 241 242 243 245 245 245 248 248 249 252 251 250 249 246 247 249 247 248 251 256 260 258 254 252 252 253 251 255 266 272 269 273 282 291 289 287 291 290 285 282 279 291 298 284 280 286 291 303 308
242 241 241 240 240 240 238 237 236 234 234 234 235 236 235 236 235 236 239 239 240 240 237 236 239 240 240 240 240 241 240 239 238 238 238 238 238 239 241 242 244 246 248 248 247 248 248 248 249 249 248 248 246 248 249 249 251 251 254 258 258 259 260 257 257 259 261 266 272 274 276 282 288 289 286 288 289 287 286 288 291 286 276 270 273 281 294 301
243 242 242 241 240 240 238 237 235 234 234 233 234 234 234 236 234 234 238 236 235 236 233 234 237 238 239 240 240 241 241 241 240 239 239 239 239 240 241 242 243 245 247 249 247 247 248 249 250 249 248 249 250 250 252 253 254 254 254 255 254 257 261 260 260 265 269 270 275 283 285 281 285 290 289 289 292 294 296 294 280 267 267 264 262 273 287 294
243 243 243 242 241 241 239 237 235 235 235 233 234 233 233 235 234 234 235 229 231 235 232 233 236 237 238 239 239 240 240 240 240 239 239 238 238 239 240 242 243 244 246 248 248 248 250 252 253 251 250 252 253 253 255 256 255 254 254 254 253 251 254 260 264 267 274 276 278 284 284 283 289 295 297 303 305 300 293 283 265 257 258 254 254 269 281 287
243 243 244 244 243 241 239 238 235 234 234 234 235 234 233 235 234 232 231 228 230 233 230 230 234 235 237 238 238 238 237 238 238 238 238 238 238 238 239 241 243 244 246 248 249 249 249 250 252 251 250 250 252 251 250 250 251 251 249 250 252 249 249 255 259 262 270 275 277 281 281 282 288 293 301 311 311 299 282 268 258 254 253 249 253 266 274 278
240 242 244 244 243 242 240 239 237 234 235 234 235 235 235 236 234 230 228 228 230 230 228 229 231 233 234 236 238 237 235 236 236 236 237 238 238 238 239 240 241 242 245 247 249 250 249 249 250 251 248 246 246 244 243 244 248 249 247 246 249 249 248 248 247 250 255 263 273 280 282 284 290 298 307 305 297 288 269 260 258 253 250 248 254 264 269 273
237 239 241 243 243 242 241 241 239 236 235 235 236 237 236 235 232 228 226 227 228 227 226 227 229 230 231 234 236 236 234 234 234 234 235 235 236 236 236 239 242 242 245 248 249 250 248 247 248 249 247 244 241 241 241 240 243 248 249 248 248 248 249 250 253 258 261 265 273 280 287 295 300 305 307 290 263 254 253 259 262 253 249 251 258 265 267 267
235 236 238 240 242 241 240 240 240 239 237 236 237 237 234 231 230 227 225 225 224 223 222 223 225 226 228 231 234 234 234 234 233 234 234 232 232 232 232 235 238 239 243 245 245 246 244 244 248 248 245 242 238 238 239 237 239 246 249 248 246 245 248 248 249 258 265 268 275 283 288 291 293 297 298 280 249 243 257 270 267 260 257 259 263 267 268 271
235 236 237 238 239 239 240 239 240 240 238 238 238 236 231 230 230 227 224 223 222 220 219 220 223 224 224 227 230 231 231 231 231 232 234 234 232 232 231 232 234 235 238 239 240 242 240 241 246 245 241 240 236 234 236 237 238 240 244 248 244 240 244 246 242 245 260 269 274 283 290 293 292 290 288 278 259 254 270 277 271 267 268 269 272 274 276 281
237 237 237 237 237 237 238 238 239 240 239 239 239 236 231 229 229 228 225 222 221 219 217 220 222 222 222 224 227 226 226 227 228 227 230 233 232 232 233 233 233 233 235 238 239 239 236 233 238 240 236 235 233 232 233 235 235 235 239 243 242 236 235 243 245 239 250 267 272 278 290 304 297 289 292 288 271 260 264 270 272 273 274 275 278 279 281 285
239 238 237 238 238 237 237 238 238 240 241 242 242 239 232 229 228 228 225 222 220 219 219 220 220 220 221 222 223 223 223 224 225 224 226 228 228 231 234 233 234 235 237 239 235 232 231 227 228 232 231 230 231 228 228 232 233 234 235 236 243 244 235 240 250 246 247 259 268 276 288 293 281 283 296 290 276 268 265 268 273 276 279 281 285 288 290 290
239 239 238 238 239 238 237 237 238 240 242 243 242 240 234 229 226 226 224 221 220 221 220 219 219 219 220 220 220 221 222 221 220 218 221 224 225 228 233 234 236 238 238 236 231 229 229 226 223 218 205 211 231 229 227 233 234 233 232 230 233 237 233 237 252 261 257 253 261 273 284 282 276 279 287 279 276 275 272 273 278 283 289 293 296 298 296 292
238 239 238 237 238 238 237 237 238 239 242 243 242 240 236 230 227 224 223 220 219 220 220 219 219 219 219 219 219 220 221 219 215 213 216 221 224 226 229 233 238 238 234 230 227 222 217 217 218 209 195 203 226 228 227 232 233 231 229 226 225 227 228 230 244 263 265 260 265 272 276 278 279 282 282 282 282 279 277 280 285 290 299 308 310 304 299 294
239 239 239 237 237 237 237 237 237 238 242 244 242 239 234 231 228 224 221 220 219 219 219 219 219 218 218 218 218 217 219 219 214 212 215 219 222 223 224 227 233 233 227 224 223 217 211 209 207 205 207 216 223 223 227 231 232 233 228 224 227 229 229 229 235 249 260 266 271 276 281 284 285 287 287 291 295 290 287 285 283 285 296 311 318 313 307 303
241 241 240 238 236 236 237 238 236 237 241 241 238 235 233 231 229 224 220 219 218 218 218 218 218 218 218 218 217 216 217 216 213 212 216 219 220 221 220 223 227 224 216 215 216 214 210 206 203 201 203 216 226 229 236 239 237 237 233 228 227 229 228 232 239 248 259 268 271 276 285 284 282 289 294 296 301 301 294 284 279 282 294 304 311 312 312 312
242 242 242 241 239 237 237 237 236 236 238 238 237 235 232 230 229 225 221 218 217 217 217 218 218 218 218 216 215 214 214 214 213 213 216 218 219 219 220 223 224 218 209 205 208 208 203 202 206 201 191 204 231 226 224 233 236 236 235 231 226 226 226 232 245 254 260 264 266 271 279 281 285 295 296 294 300 304 300 292 288 292 299 304 306 308 310 312
242 243 242 242 241 240 238 237 236 235 234 235 237 235 232 229 228 225 222 218 217 217 217 218 218 217 217 215 213 212 212 211 212 215 217 218 219 218 219 222 220 211 204 203 206 206 200 201 206 201 191 197 214 217 222 236 240 236 233 229 226 229 232 239 250 258 262 266 272 272 272 281 291 295 292 293 297 300 300 299 298 299 301 302 302 305 307 309
242 242 241 241 241 241 239 238 236 235 234 234 235 236 234 230 228 226 223 218 216 216 216 217 217 216 216 215 211 211 211 209 210 214 216 217 218 217 218 221 217 207 202 203 204 203 201 203 208 208 206 210 217 224 235 244 243 243 240 234 233 237 242 248 253 258 266 274 279 277 277 284 288 288 290 291 292 293 294 295 295 296 297 298 300 302 304 305
241 241 241 241 241 240 240 238 237 236 235 233 234 234 234 231 228 226 224 219 216 216 216 216 216 216 216 215 212 210 209 207 208 213 215 216 217 216 214 216 213 205 202 202 202 199 199 204 209 212 216 222 228 232 238 242 245 250 252 249 248 249 251 256 259 263 271 277 277 279 286 290 287 287 289 289 289 289 289 290 291 292 294 296 297 299 300 299
240 240 239 240 240 240 240 238 237 236 234 233 233 232 232 231 227 225 223 221 216 215 216 215 215 215 216 215 212 209 206 205 207 211 213 213 214 212 207 206 207 204 201 201 201 198 200 206 209 211 218 225 232 236 239 244 248 251 254 257 260 263 263 266 269 272 276 278 278 280 285 285 283 283 284 284 286 287 287 289 291 292 294 294 295 296 295 295
240 238 238 238 238 238 238 237 236 235 234 233 233 231 230 229 226 223 222 221 217 215 215 213 213 215 217 215 212 208 205 204 206 209 210 210 210 207 201 200 203 201 198 200 203 202 202 205 206 210 219 226 232 239 244 247 252 255 257 257 258 263 265 266 268 270 270 272 275 277 277 276 276 277 279 282 284 285 288 290 291 293 293 294 296 297 295 297
240 238 237 236 236 236 235 235 234 234 233 233 232 232 230 227 225 222 221 219 217 215 212 210 211 214 216 215 212 208 206 203 203 206 208 208 206 202 199 199 201 200 199 200 202 205 206 203 202 211 221 227 230 240 248 250 254 260 261 259 255 257 259 260 259 261 264 266 269 271 272 274 278 278 279 283 284 285 288 290 291 293 294 297 301 302 301 305
239 238 237 236 235 234 234 233 233 233 232 231 231 231 230 227 224 222 220 218 216 214 210 208 211 213 213 212 210 208 205 202 201 205 207 206 205 201 199 200 202 203 204 202 202 207 210 208 206 210 223 231 229 236 247 251 255 264 270 270 261 254 254 255 255 256 259 263 266 269 273 278 283 284 283 284 285 286 288 288 291 295 300 307 311 310 313 317
Height
5926 5927 5928 5928 5929 5930 5931 5932 5933 5934 5935 5936 5937 5937 5938 5939 5939 5940 5941 5942 5942 5942 5943 5943 5943 5944 5944 5945 5945 5947 5948 5948 5949 5949 5949 5949 5949 5949 5949 5949 5949 5948 5948 5948 5948 5948 5947 5947 5946 5946 5946 5945 5945 5944 5944 5944 5944 5944 5942 5942 5943 5943 5942 5942 5942 5941 5941 5941 5941 5941 5940 5940 5939 5939 5938 5937 5936 5936 5936 5936 5936 5935 5933 5933 5932 5931 5931 5931
5926 5926 5927 5928 5929 5930 5930 5931 5932 5933 5934 5935 5936 5937 5938 5938 5939 5940 5940 5941 5942 5942 5943 5943 5944 5944 5945 5945 5946 5947 5948 5949 5949 5950 5950 5950 5950 5950 5950 5950 5950 5950 5949 5949 5949 5949 5948 5948 5948 5948 5947 5947 5946 5946 5946 5946 5946 5946 5945 5945 5945 5944 5944 5944 5944 5944 5944 5943 5942 5942 5942 5941 5941 5940 5940 5939 5938 5937 5937 5937 5937 5936 5935 5934 5934 5932 5932 5932
5925 5926 5926 5927 5928 5929 5930 5931 5931 5932 5933 5934 5935 5936 5937 5937 5938 5939 5940 5940 5941 5942 5942 5943 5944 5944 5945 5945 5946 5947 5948 5949 5949 5950 5950 5950 5950 5951 5951 5951 5951 5951 5951 5950 5950 5950 5950 5950 5950 5949 5949 5948 5948 5948 5948 5948 5948 5948 5947 5947 5947 5946 5946 5946 5945 5945 5945 5944 5943 5943 5943 5942 5942 5942 5941 5940 5939 5939 5938 5938 5938 5937 5936 5936 5935 5934 5933 5932
5924 5925 5926 5927 5927 5928 5929 5930 5931 5932 5932 5933 5934 5935 5936 5937 5937 5938 5939 5940 5941 5942 5942 5943 5943 5944 5945 5945 5946 5947 5948 5949 5949 5950 5950 5951 5951 5951 5952 5952 5952 5953 5952 5952 5952 5951 5951 5951 5951 5951 5951 5950 5950 5950 5950 5950 5950 5950 5949 5949 5948 5948 5947 5947 5947 5946 5946 5945 5945 5944 5944 5944 5943 5942 5942 5941 5941 5940 5940 5939 5938 5938 5937 5937 5936 5935 5934 5933
5923 5924 5925 5926 5927 5927 5928 5929 5930 5931 5932 5933 5933 5934 5935 5936 5936 5937 5938 5939 5940 5941 5942 5942 5943 5944 5945 5945 5946 5947 5947 5949 5949 5950 5951 5951 5951 5951 5952 5953 5953 5953 5953 5953 5953 5953 5953 5952 5953 5953 5952 5952 5952 5951 5951 5951 5951 5951 5950 5950 5950 5949 5948 5948 5948 5947 5947 5947 5946 5945 5945 5944 5944 5943 5943 5942 5942 5941 5941 5940 5939 5938 5938 5937 5937 5935 5934 5933
5921 5922 5924 5925 5926 5927 5927 5928 5929 5930 5931 5932 5933 5933 5934 5935 5936 5937 5937 5938 5939 5940 5942 5942 5943 5943 5944 5945 5946 5946 5947 5948 5949 5950 5951 5951 5952 5951 5952 5953 5953 5953 5954 5954 5954 5954 5954 5954 5954 5954 5954 5953 5953 5953 5952 5952 5952 5952 5951 5952 5951 5951 5950 5949 5949 5949 5948 5948 5947 5946 5946 5945 5944 5944 5943 5943 5942 5942 5941 5940 5940 5939 5938 5938 5937 5936 5934 5934
5920 5921 5922 5923 5925 5926 5927 5927 5928 5929 5930 5931 5932 5932 5933 5934 5935 5936 5937 5938 5939 5940 5941 5942 5943 5943 5944 5945 5946 5946 5947 5948 5949 5949 5950 5951 5952 5952 5952 5952 5953 5954 5954 5954 5955 5955 5955 5955 5954 5955 5955 5955 5955 5954 5954 5953 5953 5952 5952 5953 5952 5952 5951 5951 5951 5950 5950 5949 5948 5947 5946 5946 5945 5944 5944 5943 5943 5942 5942 5941 5941 5940 5939 5938 5937 5936 5935 5934
5918 5920 5921 5922 5923 5924 5925 5926 5927 5928 5929 5930 5931 5932 5933 5934 5935 5936 5937 5937 5938 5939 5940 5941 5942 5943 5943 5944 5945 5946 5947 5947 5948 5949 5950 5950 5951 5952 5952 5952 5953 5954 5954 5954 5955 5955 5956 5956 5955 5955 5956 5956 5956 5955 5955 5955 5954 5954 5953 5953 5953 5953 5953 5952 5952 5951 5951 5950 5949 5948 5948 5947 5946 5945 5944 5943 5943 5943 5942 5942 5941 5940 5940 5939 5938 5937 5935 5934
5917 5918 5919 5920 5921 5923 5924 5925 5926 5927 5927 5929 5930 5931 5932 5933 5934 5935 5936 5937 5938 5939 5939 5940 5941 5942 5943 5944 5945 5945 5946 5947 5948 5948 5949 5950 5950 5951 5952 5952 5953 5954 5954 5954 5955 5955 5956 5956 5956 5956 5956 5956 5956 5956 5956 5956 5956 5955 5954 5954 5954 5953 5953 5953 5952 5952 5952 5951 5950 5950 5949 5948 5947 5946 5945 5944 5943 5943 5943 5942 5942 5941 5940 5939 5938 5937 5936 5935
5915 5916 5917 5919 5920 5921 5922 5923 5924 5925 5927 5928 5929 5930 5931 5932 5933 5934 5935 5936 5937 5938 5939 5940 5941 5942 5942 5943 5944 5944 5945 5946 5947 5948 5948 5949 5950 5950 5951 5952 5953 5954 5954 5954 5955 5955 5955 5956 5957 5956 5956 5957 5957 5957 5957 5957 5956 5956 5956 5955 5954 5954 5954 5954 5953 5953 5952 5952 5951 5951 5950 5949 5948 5946 5945 5945 5944 5943 5943 5943 5942 5941 5940 5939 5938 5937 5936 5935
5913 5914 5916 5917 5918 5919 5920 5921 5923 5924 5925 5927 5928 5929 5930 5931 5932 5933 5934 5935 5936 5937 5938 5939 5940 5941 5942 5943 5943 5944 5945 5945 5946 5947 5947 5948 5949 5950 5950 5951 5952 5953 5954 5955 5955 5955 5955 5956 5957 5957 5957 5957 5957 5957 5957 5957 5957 5957 5957 5956 5955 5955 5954 5954 5954 5953 5953 5952 5952 5951 5950 5949 5948 5947 5946 5946 5945 5944 5943 5943 5942 5941 5940 5939 5938 5937 5936 5935
5911 5912 5914 5915 5916 5918 5919 5920 5921 5922 5924 5925 5926 5927 5928 5929 5931 5932 5933 5934 5936 5937 5937 5939 5940 5941 5942 5942 5942 5943 5944 5945 5945 5946 5946 5947 5948 5948 5949 5950 5951 5952 5953 5955 5955 5955 5955 5955 5956 5957 5957 5958 5957 5957 5957 5957 5957 5958 5957 5957 5956 5955 5955 5955 5954 5954 5953 5952 5952 5951 5951 5950 5949 5948 5947 5946 5946 5945 5944 5943 5942 5941 5940 5939 5938 5937 5936 5934
5909 5910 5912 5913 5915 5916 5917 5919 5920 5921 5922 5923 5925 5926 5927 5928 5929 5930 5932 5933 5934 5936 5937 5938 5939 5940 5941 5941 5942 5943 5944 5944 5945 5945 5946 5946 5947 5947 5948 5949 5950 5951 5952 5954 5954 5955 5956 5955 5956 5957 5957 5958 5958 5957 5957 5957 5957 5957 5957 5957 5957 5956 5956 5955 5954 5954 5953 5953 5952 5951 5951 5950 5949 5948 5948 5947 5946 5946 5945 5943 5942 5941 5940 5939 5938 5937 5936 5934
5907 5908 5910 5911 5913 5914 5915 5917 5918 5919 5921 5922 5923 5924 5926 5927 5928 5929 5930 5931 5933 5934 5935 5937 5938 5939 5940 5940 5941 5942 5943 5944 5944 5945 5945 5946 5946 5947 5947 5948 5949 5950 5951 5953 5953 5955 5956 5956 5956 5956 5957 5958 5958 5958 5957 5957 5956 5957 5957 5957 5957 5957 5957 5956 5955 5955 5954 5953 5952 5951 5950 5950 5949 5948 5948 5947 5947 5946 5945 5944 5942 5941 5940 5939 5938 5937 5936 5935
5905 5906 5908 5909 5911 5912 5913 5915 5916 5917 5919 5920 5921 5922 5924 5925 5927 5928 5929 5930 5931 5933 5934 5935 5936 5937 5938 5939 5941 5942 5942 5943 5943 5944 5945 5945 5945 5946 5947 5947 5948 5949 5950 5952 5952 5953 5955 5956 5956 5956 5956 5957 5958 5958 5957 5957 5957 5957 5957 5957 5957 5957 5957 5956 5955 5955 5955 5954 5953 5951 5950 5950 5949 5948 5948 5948 5947 5946 5946 5944 5943 5941 5940 5939 5938 5937 5936 5935
5903 5904 5906 5907 5909 5910 5911 5913 5914 5916 5917 5918 5919 5921 5922 5923 5925 5926 5927 5929 5930 5931 5932 5934 5935 5936 5936 5938 5939 5940 5941 5942 5942 5943 5944 5944 5945 5945 5946 5947 5948 5948 5949 5950 5951 5952 5954 5955 5956 5956 5956 5957 5957 5957 5957 5957 5958 5957 5957 5958 5958 5957 5956 5955 5955 5955 5955 5954 5953 5952 5950 5950 5950 5949 5948 5948 5947 5947 5946 5945 5943 5942 5940 5939 5938 5937 5936 5935
5900 5902 5903 5905 5907 5908 5909 5911 5912 5914 5915 5916 5918 5919 5920 5921 5923 5924 5926 5927 5928 5930 5931 5932 5933 5934 5935 5936 5938 5939 5940 5941 5941 5942 5943 5943 5944 5945 5945 5946 5947 5947 5948 5949 5950 5951 5952 5954 5955 5956 5956 5956 5957 5957 5957 5958 5958 5958 5958 5958 5957 5957 5956 5955 5954 5954 5954 5954 5953 5953 5951 5950 5950 5949 5949 5948 5947 5947 5946 5945 5944 5942 5941 5939 5938 5937 5936 5935
5898 5899 5901 5903 5904 5906 5907 5909 5910 5911 5913 5914 5916 5917 5918 5919 5921 5922 5924 5925 5926 5928 5929 5930 5931 5932 5933 5934 5936 5937 5938 5939 5940 5941 5941 5942 5943 5943 5944 5945 5946 5946 5947 5948 5949 5950 5950 5951 5953 5955 5956 5956 5956 5956 5956 5957 5957 5957 5957 5957 5957 5956 5956 5955 5954 5954 5954 5954 5953 5953 5952 5951 5950 5949 5949 5948 5947 5947 5946 5946 5944 5943 5941 5939 5938 5937 5936 5935
5895 5896 5898 5900 5902 5903 5905 5906 5908 5909 5910 5912 5914 5915 5916 5917 5919 5920 5922 5923 5925 5926 5927 5928 5930 5930 5931 5932 5934 5935 5936 5937 5938 5939 5940 5940 5941 5942 5942 5943 5944 5945 5946 5947 5948 5948 5949 5950 5951 5953 5955 5955 5955 5955 5955 5955 5955 5955 5955 5955 5956 5956 5955 5955 5954 5953 5953 5954 5953 5953 5952 5952 5950 5948 5948 5948 5948 5947 5946 5946 5945 5943 5942 5940 5938 5937 5936 5935
5892 5894 5895 5897 5899 5901 5902 5904 5905 5906 5908 5910 5911 5913 5914 5915 5917 5918 5920 5921 5922 5924 5925 5926 5927 5928 5929 5930 5932 5933 5934 5935 5936 5937 5938 5939 5939 5940 5940 5941 5942 5943 5944 5946 5946 5947 5948 5948 5949 5951 5953 5954 5953 5953 5953 5953 5953 5954 5954 5954 5954 5954 5955 5954 5952 5952 5953 5953 5952 5952 5952 5952 5950 5948 5948 5948 5948 5947 5946 5945 5945 5943 5942 5940 5939 5938 5937 5936
5889 5891 5892 5894 5896 5898 5900 5901 5903 5904 5905 5907 5909 5910 5912 5913 5914 5916 5918 5919 5920 5922 5923 5924 5925 5926 5927 5929 5930 5931 5932 5933 5934 5935 5936 5937 5937 5938 5939 5940 5941 5942 5943 5944 5945 5945 5946 5946 5948 5949 5950 5950 5951 5951 5951 5951 5952 5953 5953 5953 5953 5954 5954 5953 5951 5951 5952 5952 5951 5951 5951 5951 5950 5949 5949 5948 5948 5947 5946 5945 5944 5943 5942 5940 5939 5938 5937 5936
5887 5888 5889 5891 5893 5895 5897 5898 5900 5901 5903 5904 5906 5908 5909 5911 5912 5913 5916 5917 5918 5920 5921 5922 5923 5924 5925 5927 5928 5929 5931 5931 5932 5933 5934 5935 5936 5936 5937 5938 5939 5940 5942 5943 5943 5944 5944 5945 5947 5947 5946 5948 5949 5950 5950 5950 5951 5951 5951 5951 5952 5952 5952 5952 5950 5950 5950 5951 5951 5950 5950 5950 5950 5949 5948 5948 5947 5946 5945 5945 5944 5943 5942 5940 5939 5938 5937 5936
5883 5885 5886 5888 5890 5892 5894 5895 5897 5898 5900 5901 5903 5905 5907 5908 5910 5911 5913 5914 5916 5917 5919 5920 5921 5922 5923 5925 5926 5928 5929 5929 5930 5931 5932 5933 5934 5934 5936 5937 5937 5938 5939 5940 5941 5942 5943 5944 5944 5944 5944 5946 5947 5948 5949 5949 5949 5950 5950 5950 5950 5951 5951 5951 5949 5948 5949 5949 5949 5948 5947 5948 5948 5946 5946 5946 5947 5946 5945 5944 5943 5943 5941 5940 5939 5938 5937 5936
5880 5882 5883 5885 5887 5889 5891 5892 5894 5895 5897 5898 5900 5902 5904 5905 5907 5908 5910 5912 5913 5915 5916 5918 5919 5920 5921 5923 5925 5926 5927 5927 5928 5930 5930 5931 5932 5932 5934 5935 5935 5936 5937 5938 5939 5940 5941 5942 5942 5942 5943 5944 5945 5946 5947 5947 5948 5948 5948 5949 5949 5949 5949 5949 5947 5946 5947 5947 5947 5946 5945 5946 5945 5944 5944 5945 5946 5945 5945 5944 5943 5942 5941 5939 5938 5937 5937 5936
5877 5879 5880 5882 5884 5886 5888 5889 5891 5893 5894 5895 5897 5899 5901 5902 5904 5906 5908 5910 5911 5912 5913 5915 5916 5917 5918 5920 5922 5924 5925 5925 5926 5927 5928 5929 5930 5931 5932 5933 5934 5935 5936 5936 5937 5938 5939 5940 5941 5941 5941 5942 5944 5944 5945 5946 5946 5947 5947 5947 5947 5947 5947 5947 5946 5945 5946 5945 5945 5945 5944 5943 5943 5943 5943 5944 5945 5945 5944 5943 5942 5941 5940 5939 5938 5937 5936 5935
5874 5875 5877 5878 5881 5883 5885 5886 5888 5890 5891 5893 5894 5896 5898 5900 5901 5903 5905 5907 5908 5909 5910 5912 5913 5915 5916 5918 5919 5922 5923 5923 5924 5925 5926 5927 5928 5929 5931 5932 5933 5933 5934 5934 5935 5936 5938 5939 5939 5939 5940 5941 5942 5942 5943 5944 5944 5945 5945 5945 5945 5945 5945 5945 5945 5944 5945 5944 5943 5943 5942 5941 5941 5941 5941 5942 5943 5943 5943 5942 5942 5941 5940 5938 5937 5936 5935 5934
5871 5872 5874 5875 5877 5880 5881 5883 5886 5887 5888 5890 5892 5893 5895 5897 5898 5901 5903 5903 5904 5906 5907 5908 5910 5912 5914 5915 5917 5918 5919 5920 5922 5923 5924 5925 5926 5928 5929 5930 5931 5931 5932 5932 5933 5935 5937 5936 5936 5937 5938 5939 5940 5941 5941 5941 5942 5943 5943 5943 5943 5943 5943 5943 5943 5943 5943 5942 5941 5941 5940 5939 5940 5939 5938 5940 5941 5942 5942 5941 5940 5939 5938 5937 5936 5935 5934 5933
5868 5869 5871 5872 5874 5876 5878 5880 5882 5884 5886 5887 5889 5890 5892 5894 5896 5898 5900 5900 5900 5903 5905 5905 5907 5909 5910 5912 5913 5914 5916 5918 5919 5920 5922 5923 5924 5925 5926 5928 5929 5929 5929 5931 5932 5933 5934 5933 5934 5936 5937 5937 5938 5938 5938 5939 5940 5941 5940 5940 5941 5940 5940 5941 5941 5942 5941 5940 5940 5940 5939 5938 5938 5937 5937 5937 5938 5938 5939 5938 5937 5937 5937 5936 5936 5935 5934 5933
5865 5867 5868 5869 5871 5873 5875 5877 5879 5881 5883 5884 5885 5887 5889 5891 5893 5895 5896 5896 5897 5900 5902 5903 5904 5905 5907 5908 5910 5911 5913 5915 5916 5918 5920 5920 5921 5923 5924 5925 5926 5926 5927 5929 5930 5931 5931 5931 5933 5934 5935 5936 5936 5936 5936 5937 5938 5938 5938 5938 5938 5938 5938 5939 5939 5940 5939 5937 5938 5940 5938 5936 5937 5937 5936 5936 5935 5935 5935 5935 5935 5936 5936 5935 5935 5934 5933 5932
5862 5863 5865 5866 5868 5870 5872 5874 5876 5878 5879 5881 5882 5884 5886 5888 5890 5892 5892 5892 5896 5898 5899 5900 5901 5902 5903 5905 5906 5908 5910 5912 5913 5915 5917 5918 5919 5920 5921 5923 5923 5924 5925 5927 5928 5929 5929 5930 5930 5932 5933 5933 5933 5933 5933 5935 5935 5936 5936 5936 5937 5936 5936 5937 5937 5938 5937 5935 5936 5938 5937 5935 5934 5935 5935 5935 5935 5935 5933 5932 5932 5933 5934 5934 5934 5933 5932 5931
5859 5860 5862 5863 5865 5867 5869 5871 5873 5875 5876 5877 5879 5880 5882 5884 5886 5887 5887 5891 5895 5896 5896 5897 5898 5899 5900 5902 5903 5905 5907 5908 5910 5912 5913 5915 5917 5917 5919 5920 5921 5922 5923 5924 5926 5926 5926 5927 5928 5929 5930 5930 5930 5931 5931 5932 5933 5933 5934 5935 5935 5934 5935 5935 5935 5935 5934 5934 5935 5935 5935 5934 5933 5932 5933 5933 5932 5932 5931 5929 5929 5931 5932 5932 5932 5931 5931 5930
5856 5857 5858 5860 5862 5864 5866 5868 5870 5871 5872 5874 5875 5877 5879 5880 5882 5883 5886 5892 5892 5891 5893 5895 5895 5896 5898 5899 5900 5902 5904 5905 5907 5909 5911 5912 5914 5915 5917 5917 5918 5920 5920 5922 5924 5924 5923 5924 5925 5927 5927 5927 5928 5928 5929 5930 5930 5931 5933 5933 5933 5933 5933 5934 5934 5933 5933 5933 5933 5933 5933 5932 5931 5931 5931 5930 5929 5929 5929 5929 5929 5929 5929 5930 5930 5929 5929 5928
5853 5854 5855 5857 5858 5861 5863 5865 5867 5868 5869 5871 5872 5874 5876 5876 5878 5882 5887 5889 5887 5887 5891 5893 5893 5894 5895 5896 5898 5899 5901 5903 5904 5906 5908 5909 5911 5912 5913 5914 5915 5917 5918 5919 5920 5921 5921 5922 5923 5923 5924 5925 5925 5926 5928 5928 5927 5929 5930 5931 5931 5932 5932 5932 5933 5932 5933 5933 5931 5930 5931 5930 5930 5929 5928 5927 5927 5926 5926 5927 5927 5927 5927 5928 5928 5928 5928 5927
5850 5851 5852 5854 5856 5858 5860 5861 5863 5865 5866 5867 5869 5871 5871 5872 5877 5882 5884 5884 5884 5886 5889 5890 5890 5892 5893 5894 5895 5897 5899 5900 5901 5903 5905 5906 5908 5909 5911 5912 5913 5914 5915 5916 5917 5918 5919 5919 5919 5919 5921 5922 5922 5924 5925 5924 5924 5926 5928 5928 5929 5930 5931 5932 5933 5933 5934 5933 5929 5928 5929 5929 5928 5928 5926 5925 5925 5924 5924 5924 5924 5924 5925 5926 5926 5926 5926 5926
5846 5848 5849 5851 5852 5854 5856 5857 5859 5861 5862 5864 5866 5866 5868 5872 5877 5879 5879 5880 5881 5884 5886 5887 5889 5890 5891 5892 5893 5894 5896 5897 5899 5901 5902 5904 5905 5906 5908 5909 5910 5911 5912 5913 5914 5915 5916 5917 5916 5916 5918 5919 5919 5920 5920 5921 5922 5923 5925 5926 5927 5928 5928 5929 5930 5931 5931 5931 5929 5927 5927 5927 5927 5926 5925 5925 5924 5923 5922 5922 5922 5922 5923 5924 5925 5925 5925 5924
5843 5845 5846 5848 5849 5851 5853 5854 5856 5858 5859 5861 5861 5863 5867 5872 5873 5874 5875 5877 5879 5881 5884 5885 5886 5888 5889 5890 5890 5892 5894 5895 5897 5899 5900 5901 5903 5904 5905 5906 5907 5908 5909 5910 5911 5912 5913 5913 5912 5913 5915 5916 5916 5916 5917 5919 5920 5921 5922 5924 5925 5926 5926 5926 5928 5928 5928 5929 5928 5927 5927 5927 5927 5926 5924 5923 5923 5922 5922 5921 5921 5921 5922 5923 5923 5923 5923 5923
5839 5841 5843 5844 5846 5848 5849 5851 5852 5854 5855 5856 5857 5861 5866 5869 5869 5870 5873 5875 5876 5878 5881 5882 5883 5885 5887 5888 5889 5890 5892 5894 5895 5897 5898 5899 5901 5902 5903 5904 5904 5905 5906 5907 5908 5909 5910 5910 5910 5911 5912 5913 5914 5914 5915 5917 5918 5920 5921 5922 5923 5924 5924 5924 5926 5926 5926 5928 5928 5927 5926 5927 5927 5926 5924 5922 5922 5922 5921 5921 5921 5921 5921 5922 5922 5922 5922 5921
5836 5838 5839 5841 5843 5844 5846 5848 5849 5850 5852 5852 5854 5859 5863 5864 5866 5868 5870 5871 5873 5875 5877 5878 5880 5882 5884 5885 5886 5888 5890 5892 5893 5895 5897 5898 5899 5900 5901 5901 5902 5903 5904 5904 5905 5906 5908 5908 5908 5909 5910 5910 5911 5912 5914 5915 5917 5918 5919 5920 5921 5922 5922 5923 5924 5925 5927 5928 5928 5927 5925 5925 5925 5924 5923 5922 5921 5921 5921 5920 5920 5921 5921 5921 5921 5921 5920 5920
5832 5834 5835 5837 5839 5841 5843 5844 5845 5847 5848 5849 5852 5856 5859 5861 5863 5865 5866 5868 5870 5872 5874 5875 5876 5879 5881 5883 5884 5886 5888 5890 5891 5894 5895 5896 5897 5897 5898 5899 5900 5901 5901 5902 5904 5905 5906 5907 5907 5907 5908 5909 5910 5911 5912 5914 5915 5916 5917 5918 5919 5920 5921 5922 5923 5924 5926 5927 5927 5926 5925 5925 5923 5921 5921 5921 5920 5920 5920 5920 5920 5920 5920 5920 5920 5919 5919 5918
5828 5830 5832 5834 5835 5837 5839 5841 5842 5843 5844 5847 5851 5853 5856 5858 5859 5861 5863 5865 5867 5868 5870 5871 5874 5876 5878 5880 5882 5884 5886 5888 5890 5892 5893 5894 5895 5895 5896 5897 5898 5899 5900 5901 5902 5903 5904 5905 5905 5906 5907 5908 5909 5910 5911 5912 5913 5914 5916 5917 5918 5919 5920 5921 5922 5923 5924 5925 5926 5925 5924 5924 5921 5920 5920 5920 5919 5919 5919 5919 5919 5919 5919 5918 5918 5918 5917 5916
5823 5824 5827 5830 5831 5833 5835 5836 5838 5840 5842 5845 5847 5850 5852 5854 5855 5857 5859 5862 5864 5865 5867 5869 5871 5873 5875 5878 5880 5882 5884 5887 5889 5890 5892 5893 5893 5894 5894 5895 5896 5897 5898 5900 5900 5901 5902 5904 5904 5905 5907 5909 5908 5908 5909 5911 5912 5913 5915 5916 5917 5918 5919 5920 5921 5922 5922 5923 5923 5922 5922 5921 5919 5918 5919 5919 5918 5918 5917 5917 5917 5917 5917 5917 5916 5915 5914 5913
5817 5819 5822 5825 5826 5828 5831 5832 5834 5837 5838 5841 5844 5846 5848 5850 5851 5853 5856 5858 5860 5862 5864 5866 5868 5870 5873 5875 5877 5880 5883 5884 5887 5888 5890 5891 5891 5892 5893 5894 5895 5896 5897 5898 5899 5900 5901 5902 5903 5904 5906 5907 5907 5907 5909 5910 5911 5913 5914 5915 5916 5917 5918 5920 5922 5922 5921 5920 5921 5920 5920 5919 5917 5917 5918 5917 5917 5917 5916 5916 5916 5915 5915 5915 5914 5913 5912 5911
5812 5814 5817 5820 5822 5824 5825 5827 5830 5833 5835 5838 5841 5842 5843 5845 5847 5849 5852 5855 5857 5859 5861 5863 5865 5868 5870 5873 5876 5878 5880 5883 5885 5886 5887 5889 5889 5890 5891 5893 5894 5895 5896 5897 5898 5899 5900 5901 5902 5903 5905 5906 5906 5908 5909 5909 5911 5912 5913 5914 5915 5916 5917 5918 5920 5921 5920 5919 5919 5918 5918 5917 5916 5915 5916 5916 5916 5915 5915 5914 5914 5913 5913 5912 5911 5910 5909 5908
5807 5809 5811 5814 5816 5819 5820 5822 5826 5828 5831 5834 5835 5836 5838 5841 5843 5845 5848 5851 5853 5856 5858 5860 5863 5865 5867 5870 5874 5876 5878 5880 5883 5884 5885 5887 5888 5888 5890 5891 5892 5894 5895 5896 5897 5898 5899 5900 5902 5903 5905 5907 5907 5908 5909 5909 5910 5911 5912 5913 5914 5915 5916 5917 5918 5918 5918 5918 5917 5916 5916 5916 5914 5914 5914 5914 5914 5913 5913 5912 5911 5911 5910 5909 5909 5908 5906 5905
5801 5803 5805 5808 5811 5813 5815 5818 5821 5824 5827 5829 5830 5832 5834 5836 5839 5842 5844 5847 5850 5852 5854 5856 5859 5862 5865 5868 5871 5873 5876 5878 5880 5882 5884 5885 5886 5887 5889 5890 5891 5893 5894 5895 5896 5897 5898 5900 5901 5903 5907 5909 5909 5909 5909 5908 5909 5910 5911 5912 5913 5914 5915 5916 5916 5916 5916 5915 5914 5914 5914 5913 5911 5912 5912 5912 5912 5911 5910 5910 5909 5908 5907 5906 5905 5904 5903 5902
5795 5797 5800 5802 5805 5807 5810 5813 5816 5818 5821 5824 5826 5828 5830 5832 5835 5838 5841 5844 5846 5849 5851 5853 5856 5859 5862 5865 5868 5871 5873 5876 5878 5880 5882 5883 5884 5886 5887 5889 5891 5892 5892 5893 5895 5896 5898 5899 5901 5902 5905 5907 5907 5907 5906 5907 5908 5909 5909 5910 5911 5912 5913 5914 5914 5914 5913 5912 5911 5911 5911 5910 5909 5909 5910 5910 5909 5909 5908 5907 5906 5905 5904 5903 5901 5900 5899 5898
5789 5791 5793 5796 5799 5801 5804 5807 5810 5813 5816 5819 5822 5824 5826 5829 5832 5834 5837 5840 5842 5845 5848 5850 5853 5856 5859 5863 5866 5868 5871 5874 5876 5878 5879 5881 5883 5884 5886 5888 5890 5891 5892 5893 5894 5896 5898 5899 5900 5902 5903 5904 5904 5905 5906 5907 5907 5907 5908 5908 5909 5911 5912 5912 5912 5911 5910 5910 5910 5908 5909 5910 5909 5907 5908 5907 5907 5906 5904 5903 5902 5901 5900 5899 5897 5896 5895 5894
5782 5784 5787 5790 5792 5795 5798 5801 5805 5807 5811 5814 5817 5819 5822 5825 5827 5830 5833 5836 5839 5842 5844 5847 5850 5854 5857 5860 5863 5865 5869 5872 5874 5876 5877 5879 5881 5883 5885 5887 5889 5890 5891 5892 5894 5895 5897 5898 5899 5901 5902 5903 5904 5905 5905 5905 5905 5905 5906 5906 5908 5909 5910 5910 5909 5909 5908 5908 5908 5907 5906 5907 5906 5905 5905 5904 5903 5902 5901 5900 5898 5897 5896 5895 5893 5892 5891 5890
5775 5778 5781 5783 5786 5789 5792 5796 5799 5802 5805 5808 5811 5815 5818 5820 5823 5826 5829 5832 5835 5838 5841 5844 5848 5851 5854 5857 5860 5864 5867 5869 5871 5873 5875 5877 5880 5882 5884 5886 5887 5889 5890 5892 5893 5895 5896 5897 5898 5900 5901 5902 5903 5903 5903 5904 5904 5904 5904 5904 5905 5906 5907 5907 5906 5906 5906 5907 5906 5905 5905 5904 5902 5902 5901 5900 5899 5898 5897 5896 5895 5893 5892 5890 5889 5889 5888 5887
5767 5771 5774 5777 5779 5783 5786 5789 5793 5796 5799 5802 5806 5809 5813 5815 5819 5822 5824 5827 5831 5834 5838 5842 5846 5848 5850 5854 5858 5862 5864 5867 5869 5871 5873 5876 5878 5880 5882 5884 5885 5887 5889 5891 5892 5894 5895 5896 5897 5899 5900 5900 5901 5902 5902 5902 5902 5902 5902 5902 5903 5903 5903 5904 5904 5904 5904 5904 5903 5903 5902 5900 5899 5898 5897 5897 5896 5894 5893 5892 5891 5890 5888 5887 5887 5886 5886 5885
5760 5764 5767 5770 5773 5776 5780 5783 5786 5790 5793 5797 5800 5804 5808 5811 5814 5817 5819 5823 5827 5831 5835 5840 5842 5844 5847 5851 5855 5859 5862 5864 5867 5869 5872 5874 5876 5878 5880 5882 5884 5886 5887 5889 5891 5893 5894 5895 5896 5898 5898 5899 5899 5900 5900 5900 5900 5900 5900 5900 5900 5900 5900 5900 5901 5901 5901 5901 5900 5900 5898 5896 5896 5895 5894 5893 5892 5891 5890 5889 5888 5887 5886 5886 5886 5885 5884 5884
5753 5756 5759 5762 5765 5769 5773 5776 5780 5784 5787 5791 5795 5799 5802 5805 5809 5812 5815 5819 5823 5828 5832 5835 5836 5838 5843 5848 5852 5856 5859 5862 5865 5868 5870 5873 5875 5877 5879 5881 5883 5885 5886 5888 5890 5891 5892 5894 5895 5897 5898 5897 5897 5898 5898 5898 5898 5898 5898 5898 5898 5898 5898 5898 5898 5898 5898 5898 5897 5896 5895 5893 5893 5892 5891 5890 5889 5888 5887 5886 5886 5886 5885 5884 5883 5883 5883 5882